Location: Unsp...
(0.0000°N, 0.0000°E)
Time: 17:19:41
(UTC+01:00)

Daily predictions for brighter satellites

Satellite Brightness Start Highest point End
(mag) Time Altitude Azimuth Time Altitude Azimuth Time Altitude Azimuth
Cosmos 1825 Rocket 3.6 19:26:17 10° N 19:30:41 88° W 19:35:04 10° S
Cosmos 405 4.4 19:37:13 10° SSW 19:40:38 43° W 19:44:00 10° NNW
Ariane H10+ 3.5 19:37:55 10° W 19:43:19 74° N 20:01:14 14° E
ARIANE 44L R/B 3.6 19:40:54 10° WSW 19:44:44 64° S 19:51:02 14° E
Cosmos 1934 Rocket 4.0 19:40:11 10° S 19:46:21 60° E 19:52:24 10° NNE
FREGAT/IRIS 3.7 19:44:17 10° SE 19:46:53 25° E 19:49:29 10° NNE
Cosmos 1437 Rocket 3.3 19:44:43 10° SSW 19:48:33 62° W 19:52:26 10° N
Delta 198 3.2 19:45:00 10° WSW 19:48:35 68° NNW 19:51:52 12° ENE
SJ-6B 3.6 19:45:47 10° SE 19:49:02 27° E 19:52:14 10° NNE
Ariane H10+ 3.2 19:48:08 10° NW 19:50:30 31° NNE 19:53:39 14° ENE
Cosmos 2278 Rocket 2.6 19:45:10 10° SSW 19:50:47 68° WNW 19:56:24 10° N
ATLAS CENTAUR R/B 1.0 19:53:04 10° NNW 19:56:40 88° ENE 20:00:25 10° SSE
GPS 2-17 Rocket1 4.0 19:55:22 10° W 19:59:54 45° SSW 20:03:45 14° SE
Helios 1B rocket 2.9 19:57:47 10° NE 20:01:35 37° ESE 20:05:23 10° S
Cosmos 2297 3.7 19:57:15 10° S 20:02:46 56° ESE 20:08:19 10° NNE
FENGYUN 3A 4.2 19:57:53 10° SE 20:02:48 35° ENE 20:07:42 10° NNE
GPS 2-12 Rocket1 3.0 19:59:09 10° WSW 20:03:54 85° NNW 20:06:50 22° ENE
Cosmos 1758 3.9 20:04:30 10° SSE 20:08:04 31° E 20:10:35 16° NE
Milstar 3 3.5 20:02:03 10° SW 20:08:52 37° SSE 20:12:16 23° ESE
Cosmos 1125 Rocket 3.4 20:05:24 10° S 20:10:33 63° ESE 20:15:39 10° NNE
Cosmos 2112 Rocket 4.0 20:05:47 10° N 20:10:52 56° ENE 20:15:56 10° SSE
Delta 7925 Rocket 3.9 20:06:02 10° WSW 20:11:44 56° NNW 20:15:11 19° NE
NOSS 3-4 (A) 4.3 20:09:11 10° N 20:16:11 42° ENE 20:21:12 20° SE
NOSS 3-4 (C) 4.3 20:09:18 10° N 20:16:18 41° ENE 20:21:10 20° SE
ATLAS 5 CENTAUR R/B 1.5 20:12:21 10° SSW 20:16:57 81° ESE 20:21:21 11° NNE
Cosmos 375 4.2 20:14:03 10° NNW 20:17:54 85° ENE 20:21:34 14° SSE
Cosmos 1953 2.6 20:14:40 10° SSE 20:18:32 41° E 20:19:01 39° ENE
Gblst 52 Del rocket 4.4 20:14:37 10° SSW 20:21:38 69° SE 20:25:39 23° NE
Orbus 7S 4.0 20:18:48 10° NW 20:21:45 45° NE 20:23:08 35° E
Cosmos 1605 Rocket 3.9 20:17:26 10° S 20:23:35 89° E 20:29:48 10° N
Ariane H10-3 3.5 20:22:40 10° WSW 20:26:36 66° S 20:34:02 28° E
Meteor 1-24 Rocket 4.0 20:22:19 10° NNE 20:27:42 44° E 20:31:31 19° SSE
ALOS 2.1 20:25:57 10° SSE 20:30:39 87° ENE 20:35:18 10° N
ARIANE 44L R/B 3.7 20:27:34 10° WSW 20:30:42 48° SSE 20:33:33 32° ESE
Gbstr 26 Del rocket 2.8 20:27:12 10° NW 20:31:08 84° WSW 20:32:29 44° SSE
HETE-2 4.4 20:28:17 10° W 20:32:24 74° N 20:32:41 69° NE
Meteor 2-5 Rocket 3.8 20:27:16 10° N 20:33:06 83° W 20:39:03 10° S
CZ-3B Rocket 2.7 20:23:09 10° WSW 20:36:42 54° S 20:37:59 43° ESE
Resurs 01 Rocket 2.5 20:38:51 35° NNE 20:38:51 35° NNE 20:41:32 10° N
Cosmos 2098 Rocket 3.8 20:40:31 10° S 20:46:03 89° E 20:52:54 10° N
SeaSat 1 2.6 20:48:18 55° NNE 20:48:18 55° NNE 20:52:18 10° NNW
Meteor 1-4 Rocket 3.9 20:44:04 10° SSW 20:46:25 34° SW 20:46:25 34° SW
COSMOS 2406 3.4 20:44:09 10° N 20:48:41 51° NNE 20:48:41 51° NNE
Cosmos 2123 Rocket 3.8 20:54:00 10° N 21:00:16 86° E 21:02:31 43° S
Atlas Centaur 2 4.4 20:54:14 10° W 21:01:34 31° SSW 21:06:03 20° SSE
SL-19 R/B 4.4 21:07:20 88° W 21:07:20 88° W 21:13:40 10° NNW
Centaur D-1A AC-35 4.2 21:18:47 10° WNW 21:20:34 23° WNW 21:20:34 23° WNW
